Location: Unspecified
(0.0000°N, 0.0000°E)
Time: 17:31:08
(UTC+02:00)

ARIANE DEB (SPELDA) - Visible Passes

Search period start: 17 August 2017 00:00
Search period end: 27 August 2017 00:00
Orbit: 310 x 32896 km, 3.7° (Epoch: 16 August)

Date Brightness Start Highest point End Pass type
(mag) Time Alt. Az. Time Alt. Az. Time Alt. Az.
17 Aug 7.5 22:49:31 10° W 00:34:00 46° W 07:38:25 10° E visible
18 Aug 8.0 17:37:23 10° W 00:44:48 75° ESE 02:36:01 10° E visible
19 Aug 7.5 23:01:45 10° W 00:44:12 42° W 07:48:11 10° E visible
20 Aug 8.2 17:47:16 10° W 00:54:58 79° ESE 02:46:36 10° E visible
21 Aug 7.5 23:14:16 10° W 00:54:13 38° W 07:57:51 10° E visible
22 Aug 8.2 17:57:06 10° W 01:04:22 82° ESE 02:56:59 10° E visible
23 Aug 7.6 23:27:10 10° W 01:04:03 35° W 08:07:23 10° E visible
24 Aug 8.1 18:06:50 10° W 01:09:16 85° SSE 03:07:10 10° E visible
25 Aug 7.7 23:40:35 10° W 01:13:42 31° W 08:16:50 10° E visible
